Location: Добрич
(43.6638°N, 27.9002°E)
Time: 12:49:58
(UTC+03:00)

ISS - Visible Passes

Search period start: 02 April 2023 00:00
Search period end: 12 April 2023 00:00
Orbit: 413 x 423 km, 51.6° (Epoch: 02 April)

Date Brightness Start Highest point End Pass type
(mag) Time Alt. Az. Time Alt. Az. Time Alt. Az.
02 Apr -3.7 20:00:52 10° WNW 20:04:13 84° SSW 20:07:32 10° SE visible
02 Apr -1.0 21:39:21 10° WSW 21:40:29 11° SW 21:41:03 11° SW visible
03 Apr -1.5 20:50:24 10° W 20:52:50 19° SW 20:55:16 10° S visible
04 Apr -2.1 20:02:05 10° WNW 20:05:05 31° SW 20:08:04 10° SSE visible
06 Apr -0.8 20:04:16 10° WSW 20:05:33 12° SW 20:06:50 10° SSW visible
